HAWK-C (43799 NORAD) Tracking and Keplerian Element Data

This shows tracking and keplerian element data for the satellite.

Feedback or suggestion? Click here.




ElementValue
Catalog43799
NameHAWK-C
Epoch Orbit647
Epoch Day16.16835971
Epoch Year2019
RAAN89.9162
Inclination97.7581
Eccentricity0.001403
Argument of Perigee123.15
Mean Anonmoly237.107
Mean Motion14.95977124
Decay Rate-1.44E-06
L11 43799U 18099AT 19016.16835971 -.00000144 00000-0 -76205-5 0 9992
L22 43799 97.7581 89.9162 0014030 123.1500 237.1070 14.95977124 6472

Live tracking and technical data element details for HAWK-C (NORAD 43799). HAWK-C can be tracked NOW for your location showing map with azimuth and elevation plus other details from your city location.

Track the satellite on the map from your city or location and see movement details for azimuth, elevation, latitude, longitude, range, height, and movement on the map or in text.







IsCatalogInMostPopularTable: catalog: 43799, numindb: 23
Update: records affected: 1



GetName: 43799 HAWK-C

Hit Count: updated at: Thu, 17 Jan 2019 16:17:12 GMT